Weather History for Cape Girardeau, MO

Change the Weather History Date:

Sunday, January 6, 2013

  Actual Average Record
Temperature  
Mean Temperature 33 °F 33 °F  
Max Temperature 41 °F 42 °F 65 °F (2008)
Min Temperature 25 °F 24 °F 0 °F (2014)
Degree Days  
Heating Degree Days 32 32  
Month to date heating degree days 210 192  
Since 1 July heating degree days 1834 1943  
Cooling Degree Days 0 0  
Month to date cooling degree days 0 0  
Year to date cooling degree days 0 0  
Moisture  
Dew Point 28 °F    
Average Humidity 76    
Maximum Humidity 96    
Minimum Humidity 55    
Precipitation  
Precipitation 0.00 in 0.11 in 0.87 in (1991)
Month to date precipitation T 0.71  
Year to date precipitation T 0.71  
Sea Level Pressure  
Sea Level Pressure 30.27 in    
Wind  
Wind Speed 7 mph (WNW)    
Max Wind Speed 18 mph    
Max Gust Speed 22 mph    
Visibility 9 miles    
Events      
T = Trace of Precipitation, MM = Missing Value Source: NWS Daily Summary

Daily Weather History Graph

Daily Weather History Graph

Search for Another Location

Airport:

Trip Planner

Search our weather history database for the weather conditions in past years. The results will help you decide how hot, cold, wet, or windy it might be!

Date:

Astronomy

Jan. 06, 2013 Rise Set
Actual Time 7:12 AM CST 4:56 PM CST
Civil Twilight 6:43 AM CST 5:25 PM CST
Nautical Twilight 6:11 AM CST 5:57 PM CST
Astronomical Twilight 5:39 AM CST 6:29 PM CST
Moon 1:29 AM CST (1/6) 12:21 PM CST (1/6)
Length of Visible Light 10h 41m
Length of Day
9h 43m
Waning Crescent, 33% of the Moon is Illuminated
Jan 6
Waning Crescent
Jan 11
New
Jan 18
First Quarter
Jan 26
Full
Feb 3
Last Quarter

Hourly Weather History & Observations

Time (CST) Temp. Windchill Dew Point Humidity Pressure Visibility Wind Dir Wind Speed Gust Speed Precip Events Conditions
12:53 AM 37.0 °F 31.6 °F 34.0 °F 89% 30.20 in 9.0 mi SW 6.9 mph - N/A   Overcast
1:53 AM 37.0 °F 31.6 °F 34.0 °F 89% 30.19 in 9.0 mi SW 6.9 mph - N/A   Overcast
2:53 AM 34.0 °F 27.2 °F 32.0 °F 92% 30.18 in 8.0 mi SW 8.1 mph - N/A   Partly Cloudy
3:53 AM 34.0 °F 28.0 °F 32.0 °F 92% 30.16 in 7.0 mi SSW 6.9 mph - N/A   Clear
4:53 AM 34.0 °F 29.8 °F 30.9 °F 89% 30.15 in 10.0 mi SW 4.6 mph - N/A   Clear
5:53 AM 35.1 °F 27.4 °F 30.9 °F 85% 30.16 in 10.0 mi SW 10.4 mph - N/A   Clear
6:53 AM 34.0 °F 27.2 °F 30.0 °F 85% 30.18 in 10.0 mi WSW 8.1 mph - N/A   Clear
7:53 AM 33.1 °F 25.5 °F 30.0 °F 89% 30.21 in 7.0 mi West 9.2 mph - N/A   Clear
8:53 AM 35.1 °F 28.6 °F 32.0 °F 89% 30.22 in 8.0 mi West 8.1 mph - N/A   Clear
9:46 AM 37.4 °F 28.9 °F 30.2 °F 75% 30.24 in 10.0 mi NW 13.8 mph 18.4 mph N/A   Mostly Cloudy
9:53 AM 37.4 °F 28.5 °F 28.4 °F 70% 30.24 in 10.0 mi NW 15.0 mph - N/A   Mostly Cloudy
10:53 AM 37.0 °F 29.8 °F 27.0 °F 67% 30.26 in 10.0 mi NW 10.4 mph - N/A   Overcast
11:53 AM 36.0 °F 26.7 °F 27.0 °F 70% 30.26 in 10.0 mi NNW 15.0 mph - N/A   Overcast
12:10 PM 37.4 °F 29.3 °F 26.6 °F 65% 30.26 in 10.0 mi NNW 12.7 mph - N/A   Scattered Clouds
12:53 PM 37.9 °F 31.5 °F 25.0 °F 60% 30.27 in 10.0 mi North 9.2 mph 17.3 mph N/A   Scattered Clouds
1:53 PM 39.9 °F 32.9 °F 26.1 °F 58% 30.28 in 10.0 mi NNW 11.5 mph - N/A   Clear
3:53 PM 41.0 °F 35.8 °F 26.1 °F 55% 30.32 in 10.0 mi NNW 8.1 mph - N/A   Clear
4:53 PM 37.0 °F 32.4 °F 27.0 °F 67% 30.35 in 10.0 mi North 5.8 mph - N/A   Clear
6:53 PM 33.1 °F 28.7 °F 25.0 °F 72% 30.38 in 10.0 mi North 4.6 mph - N/A   Clear
7:53 PM 32.0 °F - 24.1 °F 73% 30.39 in 10.0 mi Calm Calm - N/A   Clear
9:53 PM 27.0 °F - 23.0 °F 85% 30.40 in 8.0 mi Calm Calm - N/A   Clear
10:53 PM 26.1 °F - 21.9 °F 84% 30.42 in 9.0 mi Calm Calm - N/A   Clear
11:53 PM 25.0 °F - 23.0 °F 92% 30.42 in 8.0 mi Calm Calm - N/A   Clear